Location: Rioux
(40.7500°S, 175.7500°E)
Time: 10:04:18
(UTC+00:00)

SL-8 R/B - Pass Details

Date: 12 June 2024
Orbit: 651 x 662 km, 48.4° (Epoch: 20 July)

Event Time Altitude Azimuth Distance (km) Brightness Sun altitude
Exits shadow 17:22:22 46° 174° (S) 905 4.3 -25.0°
Maximum altitude 17:22:40 47° 161° (SSE) 896 4.3 -24.9°
Drops below altitude 10° 17:27:21 10° 87° (E) 2,097 7.3 -24.0°
Sets 17:29:47 0° 81° (E) 3,006 8.5 -23.6°
